Location: Bakov nad Jizerou
(50.4784°N, 14.9394°E)
Time: 17:41:13
(UTC+00:00)

Cosmos 2322 - Pass Details

Date: 27 October 2021
Orbit: 841 x 854 km, 71.0° (Epoch: 04 December)

Event Time Altitude Azimuth Distance (km) Brightness Sun altitude
Exits shadow 04:54:16 - 311° (NW) 2,886 6.0 -8.3°
Reaches altitude 10° 04:55:45 10° 302° (WNW) 2,482 5.6 -8.1°
Maximum altitude 04:59:25 18° 261° (W) 1,977 5.1 -7.5°
Drops below altitude 10° 05:03:03 10° 221° (SW) 2,465 5.9 -6.9°
Sets 05:06:15 0° 203° (SSW) 3,392 6.7 -6.4°
